sat.trackr.live / text

‹ back to catalog

KESTREL-0A

NORAD 64624 · 2025-138D

PAYLOAD ACTIVE UNKNOWN

§ Identity

Operator
Country
US
Launch date
2025-06-26
Launch site
RLLB
Launch vehicle
Mass (kg)
RCS (m²)

External: N2YO · Heavens-Above · Gunter

§ Orbital elements

Epoch: 2026-09-21T23:01:56.548128Z

Period
94.46 min
Inclination
97.4460°
Eccentricity
0.0014131
Mean motion
15.24475171 rev/d
Perigee alt
482.7 km
Apogee alt
502.1 km
Semi-major
6,870.5 km
B*
2.4736e-4
RAAN
268.3939°
Arg perigee
139.2192°
Mean anomaly
221.0106°
Rev number
6,868

§ Raw data

KESTREL-0A1 64624U 25138D   26264.95968227  .00006021  00000+0  24736-3 0  99922 64624  97.4460 268.3939 0014131 139.2192 221.0106 15.24475171 68688

JSON: /api/v1/satellites/64624 · /tle

For live sub-satellite position, see the globe view (requires WebGL).

§ Visibility from observer

Set your observer location to see the next 7 days of passes ≥ 10°. The values pass through the URL so the page stays shareable.

No JS? Fill the form by hand. The geolocation button needs JavaScript.